This is the latest recevied weather packets stored in our database for station/object K3HW. If no packets are shown the sender has not sent any weather packets the latest 10 day(s).
| Time | Temp. | Humidity | Pressure | Rain* | Wind** | Luminosity | Snow |
|---|---|---|---|---|---|---|---|
| 1777429410 | 12.22° C | 71% | 1021.6 hPa | 0 mm | - | 0 W/m² | - |
| 1777429106 | 12.78° C | 73% | 1021.4 hPa | 0 mm | - | 0 W/m² | - |
| 1777428803 | 12.78° C | 68% | 1021.2 hPa | 0 mm | - | 0 W/m² | - |
| 1777428499 | 12.78° C | 69% | 1021.1 hPa | 0 mm | - | 0 W/m² | - |
| 1777428194 | 12.78° C | 70% | 1021 hPa | 0 mm | - | 0 W/m² | - |
| 1777427890 | 12.78° C | 69% | 1020.7 hPa | 0 mm | - | 0 W/m² | - |
| 1777427586 | 12.78° C | 69% | 1020.6 hPa | 0 mm | - | 0 W/m² | - |
| 1777427283 | 12.78° C | 69% | 1020.8 hPa | 0 mm | - | 0 W/m² | - |
| 1777426981 | 12.78° C | 69% | 1021 hPa | 0 mm | - | 0 W/m² | - |
| 1777426678 | 12.78° C | 68% | 1021 hPa | 0 mm | - | 0 W/m² | - |
| 1777426374 | 12.78° C | 66% | 1021 hPa | 0 mm | - | 0 W/m² | - |
| 1777426069 | 13.33° C | 67% | 1021.1 hPa | 0 mm | - | 0 W/m² | - |
| 1777425765 | 13.33° C | 66% | 1021.1 hPa | 0 mm | - | 0 W/m² | - |
| 1777425459 | 13.33° C | 65% | 1021.1 hPa | 0 mm | - | 0 W/m² | - |
| 1777425156 | 13.33° C | 65% | 1021.1 hPa | 0 mm | - | 0 W/m² | - |
| 1777424852 | 13.33° C | 65% | 1021.1 hPa | 0 mm | - | 0 W/m² | - |
| 1777424547 | 13.33° C | 65% | 1021 hPa | 0 mm | - | 0 W/m² | - |
| 1777424244 | 13.33° C | 65% | 1021.1 hPa | 0 mm | - | 0 W/m² | - |
| 1777423940 | 13.33° C | 65% | 1021.4 hPa | 0 mm | - | 0 W/m² | - |
| 1777423637 | 13.33° C | 65% | 1021.6 hPa | 0 mm | - | 0 W/m² | - |
| 1777423332 | 13.33° C | 64% | 1021.5 hPa | 0 mm | - | 0 W/m² | - |
| 1777423028 | 13.33° C | 63% | 1021.8 hPa | 0 mm | - | 0 W/m² | - |
| 1777422724 | 13.33° C | 64% | 1021.9 hPa | 0 mm | - | 0 W/m² | - |
| 1777422424 | 13.33° C | 65% | 1021.9 hPa | 0 mm | - | 0 W/m² | - |
| 1777422119 | 13.33° C | 66% | 1021.9 hPa | 0 mm | - | 0 W/m² | - |
* Rain latest hour (hover to see other rain measurements)
** Current wind speed in m/s (hover to see current wind gust speed)